AMAZONAS NEXUS

Last updated on Tue Jul 01 2025 00:02:49 GMT+0000 (Coordinated Universal Time)

1 55508U 23017A 25181.45808809 -.00000283 00000+0 00000+0 0 9997 2 55508 0.0375 41.0797 0004829 35.4680 306.1189 1.00269936 3510
UTC large
Height (km)
Speed (km/s)
/
Latitude / Longitude
Inclination (degrees)
Orbital Period (minutes)
Azimuth
Elevation
Range (km)
Doppler Factor

Next 0 passes for location: London (51.5072 / 0.1276)

Sorry there are no passes over London.